Flag for Liechtenstein Weather past 2 weeks in Vaduz, Liechtenstein

Now
54 °F

Cool.


Feels Like: 54 °F
Forecast: 46 / 74 °F
Wind: No wind

Location: Vaduz

Current Time: Sep 23, 2014 at 8:20:50 PM

Latest Report: Sep 23, 2014 at 7:00 PM


Visibility: N/A

Pressure: 30.02 "Hg

Humidity: 76%

Dew point: 47 °F

Location of VaduzLocation

Historic Weather in Vaduz — Graph

°F

Vaduz temperature yesterday

Maximum temperature yesterday: 62 °F (at 2:00 PM)
Minimum temperature yesterday: 48 °F (at 11:00 PM)
Average temperature yesterday: 55 °F

Past Weeks' High & Low Weather Summary

 TemperatureHumidityPressure
High78 °F (Sep 18, 2:00 PM)98% (Sep 15, 5:00 AM)30.23 "Hg (Sep 15, 5:00 AM)
Low44 °F (Sep 23, 1:00 AM)33% (Sep 18, 2:00 PM)29.80 "Hg (Sep 17, 4:00 PM)
Average61 °F77%30.01 "Hg
* Reported Sep 8 7:00 PM — Sep 23 7:00 PM, Vaduz, Weather by CustomWeather, © 2014

Note: Actual official high and low records may vary slightly from our data, if they occured in-between our weather recording intervals... More about our weather records

Advertising

Vaduz weather history for previous 24 hours

 ConditionsComfort  
Time TempWeatherWind HumidityBarometerVisibility
7:00 PM
Sep 23
54 °FCool.No wind76%30.02 "HgN/A
6:00 PM61 °FRefreshingly cool.6 mph52%29.98 "HgN/A
5:00 PM62 °FPassing clouds.8 mph52%29.99 "Hg9 mi
4:00 PM62 °FRefreshingly cool.7 mph57%30.02 "HgN/A
3:00 PM62 °FRefreshingly cool.8 mph50%30.04 "HgN/A
2:00 PM60 °FPassing clouds.6 mph55%30.08 "Hg9 mi
1:00 PM59 °FRefreshingly cool.6 mph52%30.12 "HgN/A
12:00 PM54 °FCool.2 mph56%30.17 "HgN/A
11:00 AM53 °FPassing clouds.3 mph60%30.19 "Hg9 mi
10:00 AM49 °FCool.1 mph80%30.23 "HgN/A
9:00 AM46 °FCool.No wind88%30.23 "HgN/A
8:00 AM44 °FFog.1 mph86%30.22 "Hg6 mi
7:00 AM47 °FCool.2 mph85%30.21 "HgN/A
6:00 AM46 °FCool.5 mph89%30.20 "HgN/A
5:00 AM47 °FFog.No wind93%30.20 "Hg6 mi
4:00 AM46 °FCool.No wind92%30.20 "HgN/A
3:00 AM45 °FQuite cool.No wind95%30.20 "HgN/A
2:00 AM45 °FFog.1 mph93%30.19 "Hg6 mi
1:00 AM44 °FQuite cool.No wind96%30.20 "HgN/A
12:00 AM46 °FCool.No wind96%30.20 "HgN/A
11:00 PM
Sep 22
48 °FCool.1 mph90%30.19 "HgN/A
10:00 PM48 °FCool.No wind90%30.21 "HgN/A
9:00 PM51 °FCool.3 mph77%30.19 "HgN/A
8:00 PM51 °FRain. Low clouds.1 mph76%30.16 "Hg5 mi
Weather by CustomWeather, © 2014

See weather overviewHow to use our weather pages